Weather History for Plattsburgh, NY

Change the Weather History Date:

Monday, February 4, 2013

  Actual Average Record
Temperature  
Mean Temperature 14 °F 18 °F  
Max Temperature 23 °F 28 °F 55 °F (1991)
Min Temperature 4 °F 7 °F -20 °F (1963)
Degree Days  
Heating Degree Days 51 47  
Month to date heating degree days 198 191  
Since 1 July heating degree days 4268 4567  
Moisture  
Dew Point 3 °F    
Average Humidity 65    
Maximum Humidity 92    
Minimum Humidity 37    
Precipitation  
Precipitation T in - 0.77 in (1972)
Month to date precipitation T  
Year to date precipitation 0.75  
Sea Level Pressure  
Sea Level Pressure 29.82 in    
Wind  
Wind Speed 6 mph (NW)    
Max Wind Speed 20 mph    
Max Gust Speed 31 mph    
Visibility 10 miles    
Events      
T = Trace of Precipitation, MM = Missing Value Source: NWS Daily Summary

Daily Weather History Graph

Daily Weather History Graph

Search for Another Location

Airport:

Trip Planner

Search our weather history database for the weather conditions in past years. The results will help you decide how hot, cold, wet, or windy it might be!

Date:

Astronomy

Feb. 04, 2013 Rise Set
Actual Time 7:08 AM EST 5:07 PM EST
Civil Twilight 6:38 AM EST 5:38 PM EST
Nautical Twilight 6:03 AM EST 6:12 PM EST
Astronomical Twilight 5:29 AM EST 6:46 PM EST
Moon 1:44 AM EST (2/4) 11:25 AM EST (2/4)
Length of Visible Light 10h 59m
Length of Day
9h 58m
Last Quarter, 37% of the Moon is Illuminated
Feb 4
Last Quarter
Feb 10
New
Feb 17
First Quarter
Feb 25
Full
Mar 4
Last Quarter

Hourly Weather History & Observations

Time (EST) Temp. Windchill Dew Point Humidity Pressure Visibility Wind Dir Wind Speed Gust Speed Precip Events Conditions
12:53 AM 17.1 °F - 14.0 °F 88% 29.75 in 7.0 mi Calm Calm - 0.00 in   Overcast
1:53 AM 17.1 °F - 14.0 °F 88% 29.75 in 7.0 mi Calm Calm - 0.00 in   Overcast
2:53 AM 16.0 °F 6.3 °F 12.9 °F 88% 29.75 in 10.0 mi North 6.9 mph - N/A   Mostly Cloudy
3:05 AM 15.8 °F 8.6 °F 12.2 °F 86% 29.74 in 9.0 mi NNW 4.6 mph - N/A   Mostly Cloudy
3:53 AM 12.9 °F - 10.0 °F 88% 29.76 in 8.0 mi Calm Calm - 0.00 in   Partly Cloudy
5:53 AM 10.9 °F - 7.0 °F 84% 29.79 in 10.0 mi Calm Calm - N/A   Clear
6:53 AM 12.0 °F - 7.0 °F 80% 29.80 in 10.0 mi Calm Calm - N/A   Clear
7:53 AM 12.0 °F - 8.1 °F 84% 29.81 in 10.0 mi Calm Calm - N/A   Mostly Cloudy
8:53 AM 18.0 °F 12.7 °F 9.0 °F 68% 29.79 in 10.0 mi Variable 3.5 mph - N/A   Mostly Cloudy
9:53 AM 21.0 °F 8.6 °F 7.0 °F 55% 29.78 in 10.0 mi WNW 12.7 mph 20.7 mph 0.00 in   Mostly Cloudy
10:53 AM 23.0 °F 12.4 °F 7.0 °F 50% 29.79 in 10.0 mi West 10.4 mph 19.6 mph 0.00 in   Overcast
11:53 AM 21.0 °F 8.1 °F 3.9 °F 48% 29.78 in 10.0 mi WNW 13.8 mph 23.0 mph 0.00 in   Mostly Cloudy
12:53 PM 21.0 °F 8.6 °F -0.0 °F 40% 29.77 in 10.0 mi WNW 12.7 mph 25.3 mph N/A   Clear
1:53 PM 23.0 °F 13.9 °F -0.9 °F 35% 29.77 in 10.0 mi WNW 8.1 mph 24.2 mph N/A   Clear
2:53 PM 21.9 °F 14.5 °F 1.0 °F 40% 29.79 in 10.0 mi Variable 5.8 mph 19.6 mph N/A   Clear
3:53 PM 19.9 °F 5.7 °F -2.0 °F 38% 29.81 in 10.0 mi WNW 16.1 mph 25.3 mph 0.00 in   Clear
4:53 PM 18.0 °F 6.1 °F -5.1 °F 36% 29.83 in 10.0 mi WNW 10.4 mph 19.6 mph N/A   Clear
5:53 PM 16.0 °F 5.3 °F -2.9 °F 43% 29.86 in 10.0 mi WNW 8.1 mph - N/A   Clear
7:53 PM 12.0 °F 0.5 °F -2.9 °F 51% 29.90 in 10.0 mi North 8.1 mph - N/A   Clear
8:53 PM 9.0 °F 2.4 °F -5.1 °F 53% 29.92 in 10.0 mi North 3.5 mph - N/A   Clear
9:53 PM 7.0 °F - -5.1 °F 58% 29.94 in 10.0 mi Calm Calm - N/A   Clear
10:53 PM 6.1 °F - -6.0 °F 58% 29.94 in 10.0 mi Calm Calm - N/A   Clear
11:53 PM 3.9 °F -5.3 °F -6.0 °F 64% 29.96 in 10.0 mi WNW 4.6 mph - N/A   Clear